TIME,DELAY(SENSOR),PRES,T(CTD),SAL,OXYGEN,RAWTEMP,T(OPTODE),TCPHASE,FLUOR,BETA(BETA700),BETA(BETA412),BETA(BETA440),CDOM,C(CSC),ED(ED411.90),ED(ED443.80),ED(ED489.40),ED(ED554.70),LU(LU412.20),LU(LU443.80),LU(LU489.40),LU(LU555.00),COMP,TILTX,TILTX(TILTY),CHECK
1344697773,5805,497.5199890136719000,17.3731994628906250,36.4454994201660160,232.3986968994140600,190.4860992431640600,17.3710994720459000,31.9132595062255860,49,106,99,83,67,15608,2147482688,2147769024,2147557348,2147799789,2147312740,2147476434,2147707666,2148243337,1851,7,13,24472
1344697891,5803,486.4400024414062500,17.4531993865966800,36.4607009887695300,233.5366058349609400,187.9019012451172000,17.4497299194335940,31.8225097656250000,50,106,98,83,67,15608,2147482688,2147768978,2147555931,2147798171,2147305865,2147474221,2147707867,2148246948,2715,7,13,30312
1344698018,5805,474.7399902343750000,17.5282993316650400,36.4763984680175800,235.2026977539062500,185.3999023437500000,17.5258598327636720,31.7075290679931640,50,107,98,84,66,15607,2147484653,2147765165,2147558482,2147797120,2147314221,2147476425,2147710317,2148245138,45,7,12,44506
1344698135,5804,463.9599914550781000,17.5769996643066400,36.4855003356933600,235.7958068847656200,183.7975006103515600,17.5746192932128900,31.6570396423339840,50,107,97,83,67,15609,2147483529,2147766326,2147557065,2147798052,2147318793,2147481152,2147709394,2148249371,401,7,13,55392
1344698250,5805,453.4100036621094000,17.6336002349853500,36.4959983825683600,236.0789947509765600,181.8923034667968800,17.6326007843017580,31.6180000305175780,50,107,98,83,66,15608,2147485586,2147764361,2147559094,2147794898,2147318281,2147471241,2147707565,2148244580,893,7,13,17180
1344698377,5806,441.9500122070312500,17.6940002441406250,36.5060997009277340,237.4754028320312500,180.0023040771484400,17.6901206970214840,31.5255908966064450,50,106,98,83,67,15609,2147483446,2147765165,2147558619,2147797120,2147311817,2147477458,2147707648,2148244150,950,7,13,49880
1344698494,5802,431.5000000000000000,17.7436008453369140,36.5144996643066400,238.0178985595703000,178.3148956298828000,17.7414798736572270,31.4766902923584000,49,110,99,83,66,15609,2147485156,2147765138,2147560905,2147796132,2147317165,2147478701,2147706907,2148246454,1398,7,13,63706
1344698621,5803,420.1700134277344000,17.8078002929687500,36.5251998901367200,237.8883972167968800,176.1616973876953000,17.8070297241210940,31.4538593292236330,50,108,97,84,66,15606,2147484041,2147766299,2147560201,2147793947,2147313298,2147478363,2147707702,2148241344,2550,7,12,30422
1344698750,5803,408.8299865722656000,17.8558998107910160,36.5322990417480500,238.1699981689453000,174.6320953369140600,17.8535900115966800,31.4198894500732420,50,108,99,84,66,15607,2147483876,2147764818,2147559469,2147793993,2147304868,2147476379,2147705572,2148240502,179,7,12,2601
1344698865,5804,398.7300109863281000,17.9034996032714840,36.5401000976562500,238.1380004882812500,173.0769958496093800,17.9009399414062500,31.4006004333496100,49,108,99,83,66,15607,2147485120,2147765065,2147558774,2147796507,2147306733,2147476754,2147704996,2148242057,569,7,12,1922
1344698992,5806,387.7600097656250000,17.9379997253417970,36.5433998107910160,237.6941986083984400,171.9741973876953000,17.9345207214355470,31.4067497253417970,50,107,99,84,66,15604,2147482998,2147763931,2147558720,2147794020,2147314322,2147472978,2147704448,2148239552,578,7,13,8572
1344699121,5804,376.6300048828125000,17.9799003601074220,36.5488014221191400,237.2230987548828000,170.6141967773437500,17.9759292602539060,31.4108695983886720,50,108,99,84,66,15603,2147488000,2147767954,2147556516,2147792502,2147302701,2147475172,2147707392,2148240237,1455,7,12,56023
1344699248,5803,365.8900146484375000,18.0256996154785160,36.5547981262207000,236.5231933593750000,169.0671997070312500,18.0230407714843750,31.4235305786132800,50,109,99,84,66,15602,2147487085,2147764452,2147561398,2147795236,2147315136,2147475876,2147708032,2148240621,2386,7,12,63960
1344699377,5802,354.9400024414062500,18.0729007720947270,36.5603981018066400,235.8278961181640600,167.4358062744140600,18.0727195739746100,31.4348201751709000,50,108,99,82,66,15600,2147487497,2147764717,2147563958,2147792987,2147302683,2147478491,2147707492,2148238509,3188,7,13,35869
1344699504,5803,344.1700134277344000,18.1277999877929700,36.5665016174316400,235.4517974853515600,165.7115020751953000,18.1252307891845700,31.4294395446777340,50,110,99,84,65,15601,2147486107,2147767140,2147564589,2147793353,2147311122,2147476150,2147705115,2148242596,511,7,12,30046
1344699631,5804,333.2699890136719000,18.1909008026123050,36.5719985961914060,234.8347930908203000,163.6529998779297000,18.1879291534423830,31.4317092895507800,50,110,99,84,67,15599,2147489618,2147769636,2147566592,2147793572,2147312896,2147479104,2147712173,2148240594,696,7,13,30721
1344699761,5804,322.1099853515625000,18.2444992065429700,36.5774993896484400,234.2411041259765600,161.8914031982422000,18.2416000366210940,31.4364891052246100,50,109,99,83,66,15598,2147491245,2147772269,2147570889,2147794157,2147312475,2147483273,2147715355,2148240694,1282,7,12,18862
1344699888,5803,311.2099914550781000,18.3216991424560550,36.5864982604980500,233.4434051513672000,159.3471069335937500,18.3191108703613280,31.4409599304199220,49,110,99,84,66,15598,2147487561,2147771346,2147577444,2147795538,2147311085,2147481600,2147718418,2148239414,2076,7,13,12979
1344700017,5801,300.2600097656250000,18.3981990814209000,36.5929985046386700,232.3694000244140600,156.8439941406250000,18.3953895568847660,31.4594993591308600,50,110,100,84,66,15596,2147486866,2147773257,2147587977,2147791890,2147307748,2147482002,2147723401,2148238848,2043,7,12,24643
1344700144,5804,289.7500000000000000,18.4941005706787100,36.6010017395019500,230.9111938476562500,153.6506958007812500,18.4927005767822270,31.4876308441162100,50,111,99,84,67,15594,2147487780,2147777956,2147596608,2147795748,2147315008,2147487140,2147730642,2148238061,2793,7,12,33426
1344700283,5803,278.7300109863281000,18.5904006958007800,36.6085014343261700,229.5216064453125000,150.5043029785156200,18.5886192321777340,31.5137290954589840,50,110,100,85,67,15595,2147486061,2147780708,2147614436,2147791862,2147305764,2147491282,2147735286,2148239652,2929,7,13,15204
1344700425,5801,267.9700012207031000,18.6984004974365230,36.6054000854492200,228.9131927490234400,147.0063934326172000,18.6952590942382800,31.4967498779296880,50,112,99,84,67,15593,2147488274,2147788553,2147637339,2147793920,2147317696,2147495195,2147752512,2148241718,3461,7,13,24412
1344700576,5807,257.1000061035156000,18.8223991394042970,36.6045989990234400,231.1974945068359400,142.8894042968750000,18.8208198547363280,31.3297004699707030,50,110,99,83,66,15596,2147487670,2147804004,2147670811,2147795035,2147315766,2147504978,2147769435,2148239277,74,8,12,58414
1344700722,5806,245.0700073242187500,18.9057998657226560,36.6066017150878900,232.4109039306640600,140.1298980712890600,18.9050006866455080,31.2341098785400400,50,110,98,85,66,15594,2147490678,2147818075,2147710994,2147792210,2147304192,2147512594,2147790939,2148242569,1003,7,13,58217
1344700837,5803,234.4299926757812500,19.0370006561279300,36.6015014648437500,234.3054046630859400,135.7117004394531200,19.0398101806640620,31.0842704772949220,50,108,99,84,65,15594,2147497334,2147836114,2147755812,2147792228,2147303597,2147523136,2147814674,2148245723,1257,7,12,61708
1344700966,5802,223.2400054931640600,19.1551990509033200,36.5945014953613300,241.2118072509765600,132.0305023193359400,19.1521701812744140,30.7109508514404300,50,110,100,84,65,15597,2147492589,2147864228,2147809920,2147791003,2147303972,2147542665,2147848950,2148243913,1094,7,12,8446
1344701093,5803,212.8500061035156200,19.2369003295898440,36.5932006835937500,247.7171020507812500,129.3070983886718800,19.2353191375732420,30.3797092437744140,50,109,98,84,64,15594,2147504822,2147911542,2147923483,2147792402,2147307620,2147576265,2147920704,2148248274,1405,8,12,9667
1344701232,5804,201.9100036621093800,19.2870006561279300,36.5859985351562500,252.2277069091797000,127.7060012817382800,19.2842102050781250,30.1596298217773440,51,110,98,84,64,15592,2147515520,2147964946,2148048658,2147793060,2147320502,2147611776,2147985380,2148250596,2754,7,12,38378
1344701308,5804,196.1999969482422000,19.3010997772216800,36.5828018188476560,253.4924011230468800,127.2399978637695300,19.2984409332275400,30.0984497070312500,51,110,99,85,63,15591,2147522496,2148009051,2148147318,2147790738,2147326912,2147646409,2148049115,2148258249,3250,7,13,34913
1344701375,5801,191.5099945068359400,19.3111991882324220,36.5789985656738300,254.1221008300781200,126.8679962158203100,19.3097991943359380,30.0664405822753900,52,113,100,84,63,15590,2147529627,2148021586,2148171922,2147791405,2147324480,2147658075,2148068781,2148259602,3515,7,13,7377
1344701430,5803,187.6100006103515600,19.3162002563476560,36.5766983032226560,254.9295959472656200,126.7445983886718800,19.3135700225830080,30.0298595428466800,53,113,100,85,64,15589,2147536886,2148089709,2148323849,2147793554,2147335424,2147705042,2148158198,2148262134,348,7,12,59516
1344701485,5804,183.6900024414062500,19.3223991394042970,36.5759010314941400,255.4064025878906200,126.5259017944336000,19.3202495574951170,30.0064792633056640,54,115,99,84,64,15588,2147549302,2148130340,2148408704,2147792137,2147344146,2147730560,2148207908,2148265216,338,7,13,17734
1344701540,5807,179.7299957275390600,19.3276004791259770,36.5755004882812500,255.6835937500000000,126.3557968139648400,19.3254508972167970,29.9923095703125000,55,115,99,86,62,15587,2147557814,2148182701,2148510573,2147792667,2147340982,2147764233,2148262939,2148269165,461,7,12,60758
1344701618,5804,174.3600006103515600,19.3351001739501950,36.5751991271972660,255.7891998291015600,126.0807037353515600,19.3338508605957030,29.9841499328613280,58,117,100,85,62,15581,2147579099,2148262345,2148676224,2147794121,2147352960,2147816064,2148370368,2148277952,707,7,13,6190
1344701685,5805,170.2400054931640600,19.3512992858886720,36.5759010314941400,255.6869964599609400,125.5893020629882800,19.3488597869873050,29.9823207855224600,61,119,99,85,64,15575,2147593874,2148322148,2148806738,2147794880,2147363858,2147853723,2148438829,2148281206,871,7,12,21821
1344701752,5802,166.0700073242187500,19.3654003143310550,36.5756988525390600,255.2266998291015600,125.1421966552734400,19.3625202178955080,29.9963493347167970,67,122,100,86,64,15567,2147617462,2148416594,2149009435,2147796269,2147372918,2147915373,2148550619,2148289325,1176,7,12,41011
1344701819,5802,161.8899993896484400,19.3654994964599600,36.5741004943847660,255.2232055664062500,125.0597000122070300,19.3650398254394530,29.9952793121337900,70,123,101,86,65,15566,2147637165,2148463158,2149072146,2147795712,2147380864,2147931291,2148572077,2148291574,1269,7,12,49094
1344701886,5803,157.7100067138672000,19.3766002655029300,36.5746002197265600,255.1735992431640600,124.7852020263671900,19.3734207153320300,29.9941101074218750,73,125,102,87,64,15563,2147683730,2148640018,2149437485,2147798308,2147398043,2148037906,2148772516,2148304777,1339,7,12,46630
1344701963,5805,153.3899993896484400,19.3820991516113280,36.5731010437011700,255.0522003173828000,124.5590972900390600,19.3803291320800780,29.9962291717529300,80,127,101,86,65,15552,2147730377,2148794084,2149726902,2147800923,2147427099,2148125430,2148924205,2148311835,1254,7,12,22604
1344702042,5803,149.8999938964843800,19.3995990753173830,36.5751991271972660,254.8876037597656200,124.0438995361328100,19.3960609436035160,29.9966392517089840,89,130,101,86,63,15545,2147783917,2148978395,2150086838,2147805824,2147441517,2148216082,2149088210,2148322249,1292,7,12,62920
1344702121,5804,146.5299987792968800,19.4073009490966800,36.5749015808105500,255.0187072753906200,123.7624969482421900,19.4046592712402340,29.9873008728027340,97,133,100,86,64,15543,2147856045,2149194422,2150502976,2147807725,2147472950,2148314715,2149268699,2148334509,1381,7,13,3670
1344702212,5802,142.8999938964843800,19.4171009063720700,36.5750007629394500,254.8459014892578000,123.3924026489257800,19.4159698486328120,29.9902305603027340,99,132,101,88,63,15532,2147930733,2149433764,2150946587,2147809618,2147506395,2148426322,2149466459,2148348224,1330,7,12,26481
1344702330,5803,138.8800048828125000,19.4316997528076170,36.5760993957519500,254.9792938232422000,122.9710006713867200,19.4288406372070300,29.9789390563964840,112,132,101,87,63,15526,2148031899,2149724187,2151448960,2147813878,2147546422,2148537316,2149646592,2148363337,1432,7,13,99
1344702457,5805,135.1499938964843800,19.4852008819580080,36.5792007446289060,255.2360992431640600,121.7057037353515600,19.4675006866455080,29.9513492584228500,122,133,102,88,64,15516,2147939830,2149278674,2150411840,2147806646,2147493677,2148246637,2149068580,2148333467,1549,7,12,33701
1344702604,5802,130.7100067138672000,19.5384998321533200,36.5830001831054700,257.0407104492187500,119.5267028808593800,19.5340805053710940,29.8461494445800780,134,132,101,87,65,15504,2147956644,2149228461,2150151442,2147810240,2147479716,2148150546,2148852717,2148318500,2013,7,12,8233
1344702695,5802,126.9000015258789000,19.5839004516601560,36.5853004455566400,258.4632873535156000,117.9872970581054700,19.5811290740966800,29.7658290863037100,141,131,101,86,65,15495,2148119076,2149648777,2150755776,2147814994,2147534390,2148273718,2149044397,2148336722,2091,7,12,41707
1344702798,5804,122.4899978637695300,19.6574993133544920,36.5867004394531250,260.9896850585937500,115.7621002197265600,19.6491508483886720,29.6307201385498050,135,130,101,87,66,15484,2148552612,2150766226,2152437613,2147829659,2147666688,2148650139,2149652964,2148386066,3094,7,13,49843
1344702891,5803,118.4700012207031200,19.7148990631103500,36.5906982421875000,263.4425048828125000,113.7483978271484400,19.7107200622558600,29.5030193328857420,115,127,103,85,66,15487,2148771812,2151166180,2152778020,2147833554,2147724425,2148764068,2149761737,2148402633,3400,7,12,41414
1344702970,5805,114.7699966430664000,19.7730998992919920,36.5933990478515600,265.6763000488281000,111.8880996704101600,19.7676105499267580,29.3873291015625000,106,129,102,88,66,15491,2148891346,2151273837,2152701988,2147834029,2147773732,2148808539,2149758582,2148405184,3208,7,12,39189
1344703061,5804,110.3000030517578100,19.8435993194580080,36.5952987670898440,267.3095092773437500,109.6138000488281200,19.8371696472167970,29.2918701171875000,104,130,104,88,64,15486,2149480731,2152536045,2154315958,2147859053,2147976950,2149299593,2150430308,2148472484,3099,7,12,53081
1344703140,5805,106.7200012207031200,19.8936004638671880,36.5988006591796900,269.0068054199219000,107.9662017822265600,19.8875808715820300,29.2022800445556640,100,132,102,88,65,15483,2150579913,2154911808,2157482185,2147905353,2148358390,2150242934,2151759606,2148581110,2837,7,12,10092
1344703234,5804,103.0500030517578100,19.9757995605468750,36.6013984680175800,270.2921142578125000,105.4159011840820300,19.9656105041503900,29.1183204650878900,97,132,104,89,63,15472,2151248612,2155972653,2158434944,2147930944,2148611638,2150735305,2152273261,2148634413,2031,7,13,49235
1344703361,5802,99.0999984741211000,20.0779991149902340,36.6082000732421900,272.1978149414062500,101.9421997070312500,20.0719299316406250,28.9986495971679700,99,134,102,90,63,15465,2154093156,2161463981,2165118052,2148048594,2149659318,2153040091,2155250422,2148896987,1693,7,12,45682
1344703428,5803,97.1200027465820300,20.1550998687744140,36.6110000610351560,273.0293884277344000,99.4066696166992200,20.1495704650878900,28.9337501525878900,93,139,103,90,63,15460,2155745627,2164456877,2168583478,2148122706,2150299675,2154382674,2156866870,2149046107,1510,7,12,20816
1344703518,5805,94.0899963378906200,20.3041992187500000,36.6193008422851560,274.8215026855469000,94.6391677856445300,20.2956008911132800,28.8032798767089840,88,137,106,90,62,15452,2158265508,2168627309,2173064859,2148245284,2151367963,2156440109,2159105124,2149253257,707,7,13,14735
1344703573,5803,91.5999984741211000,20.3311004638671880,36.6217994689941400,275.8402099609375000,93.6064071655273400,20.3272399902343750,28.7506294250488280,86,135,106,91,62,15444,2160118363,2171299373,2175582098,2148327113,2152173586,2157791881,2160424301,2149375972,290,7,12,53892
1344703628,5805,89.0299987792968800,20.3647994995117200,36.6235008239746100,276.2768859863281000,92.5708236694336000,20.3589706420898440,28.7204704284667970,83,135,105,89,62,15441,2162001956,2173775954,2177687908,2148412242,2153001664,2159075245,2161582418,2149490322,61,7,12,20431
1344703683,5806,86.4700012207031200,20.4204006195068360,36.6264991760253900,276.7710876464844000,90.6386795043945300,20.4181900024414060,28.6772804260253900,85,135,107,91,64,15437,2164691949,2177291428,2180778998,2148530496,2154168960,2160902720,2163219300,2149653412,98,7,12,49458
1344703738,5804,83.9199981689453100,20.4687995910644530,36.6290016174316400,277.2590026855469000,88.8127593994140600,20.4741592407226560,28.6356296539306640,83,138,104,91,62,15438,2167973915,2181543862,2184545380,2148687817,2155611648,2163146514,2165271936,2149855652,3515,7,13,65251
1344703793,5804,81.1399993896484400,20.5848007202148440,36.6334991455078100,277.9418945312500000,85.7693862915039000,20.5674896240234380,28.5710792541503900,78,139,106,90,59,15437,2162678034,2171349979,2171893504,2148368438,2153681170,2158873965,2159811849,2149355995,3217,8,13,39068
1344703851,5802,78.0199966430664000,20.6693992614746100,36.6375999450683600,278.5426940917969000,83.2634887695312500,20.6443500518798830,28.5168704986572270,77,140,106,90,62,15433,2175439030,2190563154,2192584347,2149120594,2159196470,2168269705,2169873042,2150332818,3250,8,13,43304
1344703906,5802,75.2699966430664000,20.7796001434326170,36.6409988403320300,279.1395874023437500,79.1706466674804700,20.7699508666992200,28.4430904388427730,77,138,106,90,60,15428,2176757549,2191135067,2192237613,2149219666,2160065947,2169016996,2170020900,2150379163,117,7,12,54814
1344703961,5805,72.8600006103515600,20.9039993286132800,36.6418991088867200,280.1583862304687500,74.3126831054687500,20.9190998077392580,28.3438491821289060,75,136,106,92,62,15415,2177457654,2190725540,2190831643,2149257152,2160609901,2169217764,2169610057,2150354112,3405,7,13,47592
1344704016,5803,71.0999984741211000,21.1002998352050780,36.6603012084960940,280.7977905273437500,69.2631072998046900,21.0742397308349600,28.2571907043457030,72,139,106,92,60,15412,2180860114,2194383232,2193898020,2149459675,2162339017,2171419840,2171459958,2150548937,2501,7,13,55222
1344704095,5804,69.4499969482421900,21.1721000671386720,36.6749992370605500,281.8092041015625000,67.2061691284179700,21.1374607086181640,28.1935005187988280,72,139,106,91,59,15423,2187399798,2202191689,2201058861,2149877604,2165678034,2176022656,2175574646,2150981970,2342,7,12,10422
1344704186,5802,67.1399993896484400,21.4365997314453120,36.7005996704101560,281.8609008789062500,58.5391807556152340,21.4040603637695300,28.0848102569580080,70,141,106,90,59,15408,2196079725,2212281718,2210308388,2150467337,2170676096,2182434633,2181077001,2151567981,1700,8,13,9269
1344704241,5803,65.2699966430664000,21.5666999816894530,36.6991004943847660,282.1105041503906000,53.9121208190918000,21.5465202331542970,28.0185508728027340,67,140,107,92,60,15399,2202925138,2219998272,2217347931,2151003904,2175232905,2188275693,2185936000,2152087872,1605,8,13,11598
1344704296,5803,63.7599983215332000,21.6763000488281250,36.6679000854492200,282.5484924316406000,50.6651802062988300,21.6465396881103500,27.9623298645019530,66,145,107,92,61,15400,2207602880,2224779254,2221221860,2151365860,2178503451,2192187529,2188864859,2152398866,1942,7,12,58413
1344704363,5805,62.5800018310546900,21.7434005737304700,36.6646003723144500,283.1702880859375000,47.8292198181152340,21.7339401245117200,27.9043693542480470,65,138,107,92,58,15413,2217619090,2236402304,2231929801,2152127552,2184539273,2200012288,2195429339,2153075245,2392,7,13,3501
1344704490,5803,59.7400016784668000,21.8931007385253900,36.6507987976074200,283.0754089355469000,42.4708518981933600,21.8991909027099600,27.8424091339111330,64,140,106,92,58,15412,2227708589,2245403355,2238856722,2152990756,2192168768,2208208548,2200808603,2153704429,2966,7,13,8850
1344704545,5804,57.6599998474121100,22.2040996551513670,36.6412010192871100,281.8988037109375000,32.0229797363281250,22.2217807769775400,27.7589797973632800,63,134,106,91,58,15415,2238922203,2257247643,2249782427,2154144768,2199480374,2216617298,2207431003,2154475456,3077,7,12,47510
1344704600,5801,56.2400016784668000,22.4039993286132800,36.6535987854003900,281.3902893066406000,26.5483608245849600,22.3910293579101560,27.7113704681396500,61,138,108,90,59,15406,2231454601,2246054930,2237817910,2153552777,2196565961,2211262784,2201853568,2153927762,2658,7,12,50684
1344704778,5802,53.1399993896484400,22.7812004089355470,36.6749000549316400,280.4219055175781000,14.4004602432250980,22.7671394348144530,27.6001091003417970,60,136,105,90,61,15409,2240727268,2254987181,2246217883,2154951506,2204402093,2219626066,2208395894,2154832521,2050,7,12,31808
1344704835,5802,52.0699996948242200,22.7992992401123050,36.6790008544921900,280.3923950195312500,13.2469396591186520,22.8028907775878900,27.5872192382812500,59,138,105,90,59,15419,2238104064,2251006445,2242243282,2154932434,2203799195,2217968704,2206610569,2154688438,1952,7,13,51520
1344704882,5804,50.4500007629394500,22.9564990997314450,36.6673011779785160,279.3615112304687500,7.1382699012756350,22.9923591613769530,27.5519104003906250,61,138,108,92,62,15417,2248950281,2262487030,2253363785,2156539245,2212294939,2227156059,2213933586,2155669568,1746,7,12,20768
1344704942,5802,48.6500015258789060,23.0816001892089840,36.6301994323730500,279.1488952636719000,4.5452361106872560,23.0728492736816400,27.5286102294921880,59,137,107,92,61,15416,2252994834,2265831515,2256186697,2157234861,2217626258,2232409874,2217448100,2156162340,1666,7,12,17139
1344705079,5804,46.9500007629394500,23.1466999053955080,36.6193008422851560,278.2340087890625000,1.9490540027618408,23.1534805297851560,27.5315399169921880,59,138,108,90,57,15421,2266780096,2280365028,2270199725,2159339693,2230237549,2246066889,2227718829,2157451382,1045,7,12,53336
1344705175,5803,44.5900001525878900,23.2215003967285160,36.5876998901367200,277.5004882812500000,-0.6561756134033203,23.2344303131103500,27.5277004241943360,58,138,105,91,57,15421,2292000438,2306047460,2294289682,2163417709,2253215305,2270171273,2245784813,2159903067,529,8,12,53194
1344705234,5803,42.6399993896484400,23.5695991516113280,36.5728988647460940,276.3998107910156000,-7.2654337882995605,23.4399604797363280,27.4894905090332030,57,133,105,91,56,15433,2321940827,2338305581,2326491428,2168900498,2276102253,2295080630,2265460973,2162744475,902,7,12,16342
1344705358,5804,40.9599990844726560,23.9178009033203120,36.5878982543945300,274.7955932617187500,-21.1307792663574220,23.8719902038574220,27.3831100463867200,58,134,105,91,57,15437,2350236251,2368387136,2355930724,2174003492,2300777289,2321605714,2286198811,2165659885,1236,7,12,31904
1344705504,5803,38.8300018310546900,24.4512996673584000,36.6767997741699200,272.9812927246094000,-37.0707702636718750,24.3701801300048830,27.2604103088378900,56,133,105,93,59,15422,2344346651,2358268096,2345541705,2175294656,2311065773,2327936402,2288807277,2166417901,1109,8,12,10532
1344705741,5802,36.6300010681152340,24.6686000823974600,36.6041984558105500,268.9953918457031000,-47.3996391296386700,24.6938991546630860,27.2895393371582030,55,135,105,94,59,15437,2332045714,2342734939,2330367689,2175472109,2306578560,2318919588,2279206518,2165580096,3253,7,12,32358
1344705813,5803,34.6599998474121100,25.0186004638671880,36.5987014770507800,266.5841064453125000,-57.2985305786132800,25.0048408508300780,27.2643108367919920,54,134,106,90,57,15448,2327221869,2334605220,2321581147,2176171419,2311517549,2321340032,2280003291,2165723904,3171,6,12,32628